Regional Weather Roundup
Issued by NWS

Home | Current Version | Previous Version | Text Only | Print | Product List | Glossary On
Versions: 1 2 3 4 5 6 7 8 9 10 11 12 13 14 15 16 17 18 19 20 21 22 23 24 25 26 27 28 29 30 31 32 33 34 35 36 37 38 39 40 41 42 43 44 45 46 47 48 49 50
000
ASUS45 KABQ 061210
RWRNM
WEATHER ROUNDUP FOR NEW MEXICO
NATIONAL WEATHER SERVICE ALBUQUERQUE NM
600 AM MDT WED MAY 06 2015

NOTE: "FAIR" MEANS FEW OR NO CLOUDS BELOW 12,000 FEET AGL WITH NO
       SIGNIFICANT WEATHER OR OBSTRUCTIONS TO VISION.

      THIS PRODUCT IS RELEASED AS TWO VERSIONS.  ONE VERSION NEAR
      THE TOP OF THE HOUR CONTAINING PRELIMINARY DATA FROM ALBUQUERQUE
      AND OTHER STATIONS.  A FINAL VERSION WITH ADDITIONAL DATA IS
      ISSUED ABOUT 10 MINUTES AFTER THE HOUR.

NMZ501-503-504-510>518-061300-
NORTHWEST PLATEAU/NORTHCENTRAL MOUNTAINS

CITY           SKY/WX    TMP DP  RH WIND       PRES   REMARKS
FARMINGTON     CLOUDY    48  46  93 W6        29.89S
6HR MIN TEMP:  48; 6HR MAX TEMP:  52; 6HR PCP:  0.02;

LOS ALAMOS     PTCLDY    44  44 100 CALM      29.95S
SANTA FE       MOCLDY    46  42  86 SW9       29.93S
6HR MIN TEMP:  46; 6HR MAX TEMP:  48;

TAOS           MOCLDY    45  36  70 SW15      29.92F
ANGEL FIRE     CLOUDY    42  36  79 SW10G17   29.90S

$$
NMZ402-403-502-505>509-061300-
WESTCENTRAL MOUNTAINS/SOUTHWEST MOUNTAINS

CITY           SKY/WX    TMP DP  RH WIND       PRES   REMARKS
GALLUP         CLOUDY    47  43  86 SW9       29.98S
6HR MIN TEMP:  45; 6HR MAX TEMP:  48; 6HR PCP:  0.01;

GRANTS         MOCLDY    48  42  77 NW13G18   30.00F
SILVER CITY      N/A     45  37  76 N12       30.00F

$$
NMZ407-409-411-412-061300-
SOUTHERN DESERTS

CITY           SKY/WX    TMP DP  RH WIND       PRES   REMARKS
LORDSBURG      FAIR      45  37  76 SE5       29.97S
DEMING         CLEAR     47  38  71 SW3       29.97S
6HR MIN TEMP:  47; 6HR MAX TEMP:  59;

LAS CRUCES     CLEAR     52  38  59 W10       29.97R
HOLLOMAN AFB   PTCLDY    56  38  51 CALM      29.92R
ALAMOGORDO     PTCLDY    50  36  57 E3        29.94R
T OR C         MOCLDY    55  38  52 NW7       29.95S
6HR MIN TEMP:  52; 6HR MAX TEMP:  57;


$$
NMZ519>523-061300-
CENTRAL VALLEYS/CENTRAL HIGHLANDS

CITY           SKY/WX    TMP DP  RH WIND       PRES   REMARKS
ALBUQUERQUE    CLOUDY    53  44  71 SE7       29.95R
6HR MIN TEMP:  51; 6HR MAX TEMP:  54; 6HR PCP: TRACE;

DOUBLE EAGLE   MOCLDY    48  43  81 SW13      29.95R
MORIARTY ARPT  CLOUDY    49  41  73 W17G23    29.95S
6HR MIN TEMP:  45; 6HR MAX TEMP:  49;

CLINES CORNERS PTCLDY    44  40  85 W25       29.92S
6HR MIN TEMP:  43; 6HR MAX TEMP:  45;

BELEN          FAIR      49  41  75 SW9       29.95S
6HR MIN TEMP:  49; 6HR MAX TEMP:  55;

SOCORRO        FAIR      51  43  74 S5        29.94S
6HR MIN TEMP:  50; 6HR MAX TEMP:  57;


$$
NMZ524>526-539-540-061300-
SOUTHCENTRAL MOUNTAINS

CITY           SKY/WX    TMP DP  RH WIND       PRES   REMARKS
RUIDOSO        CLEAR     46  34  61 SE5       30.02R

$$
NMZ527>531-061300-
NORTHEAST HIGHLANDS/NORTHEAST PLAINS

CITY           SKY/WX    TMP DP  RH WIND       PRES   REMARKS
LAS VEGAS      PTCLDY    47  37  68 S14       29.87R
6HR MIN TEMP:  44; 6HR MAX TEMP:  48;

RATON          MOCLDY    45  41  86 CALM      29.79S
6HR MIN TEMP:  43; 6HR MAX TEMP:  46;

CLAYTON        PTCLDY    47  41  80 SW13      29.75R
6HR MIN TEMP:  47; 6HR MAX TEMP:  50;


$$
NMZ532>537-061300-
EASTCENTRAL PLAINS

CITY           SKY/WX    TMP DP  RH WIND       PRES   REMARKS
TUCUMCARI      CLEAR     54  44  69 SW9       29.79R
6HR MIN TEMP:  51; 6HR MAX TEMP:  56;

CANNON AFB     NOT AVBL
CLOVIS AIRPORT CLEAR     50  45  81 SW13      29.86R

$$
NMZ028-029-538-061300-
SOUTHEAST PLAINS

CITY           SKY/WX    TMP DP  RH WIND       PRES   REMARKS
ROSWELL        CLEAR     51  46  83 CALM      29.87S
6HR MIN TEMP:  49; 6HR MAX TEMP:  59;

ARTESIA        CLEAR     52  45  76 CALM      29.90R
CARLSBAD       CLEAR     58  44  60 W5        29.87S
6HR MIN TEMP:  52; 6HR MAX TEMP:  64;

HOBBS          CLOUDY    59  59 100 S14       29.91S FOG


$$


USA.gov is the U.S. government's official web portal to all federal, state and local government web resources and services.